STARLINK-2639 (48436 NORAD) Tracking and Keplerian Element Data

This shows tracking and keplerian element data for the satellite.

Feedback or suggestion? Click here.




ElementValue
Catalog48436
NameSTARLINK-2639
Epoch Orbit366
Epoch Day214.91667824
Epoch Year2021
RAAN162.5646
Inclination53.0504
Eccentricity0.0001453
Argument of Perigee73.0074
Mean Anonmoly189.3607
Mean Motion15.1590612
Decay Rate-0.01068959
L11 48436U 21040J 21214.91667824 -.01068959 00000-0 -59495-1 0 9998
L22 48436 53.0504 162.5646 0001453 73.0074 189.3607 15.15906120 3667

Live tracking and technical data element details for STARLINK-2639 (NORAD 48436). STARLINK-2639 can be tracked NOW for your location showing map with azimuth and elevation plus other details from your city location.

Track the satellite on the map from your city or location and see movement details for azimuth, elevation, latitude, longitude, range, height, and movement on the map or in text.







IsCatalogInMostPopularTable: catalog: 48436, numindb: 28
Update: records affected: 1



GetName: 48436 STARLINK-2639

Hit Count: updated at: Tue, 03 Aug 2021 19:28:40 GMT